SCP
0 0 0 0 0 0 0 0 0 0 0 0 0 1 2 2 2 2 0 1 1 1 1 0 0 0 0 0 0 0 0 0 0 0 0 0 0 0 -0 -0 -0 -0 -0 -0
0 0 0 0 0 0 0 1 0 0 0 0 1 2 3 2 1 1 0 1 1 1 1 1 0 0 0 0 1 1 0 0 0 1 0 0 0 0 -0 -0 -0 -0 -0 -0
0 0 0 0 0 0 0 0 0 0 2 2 2 1 1 0 0 0 0 0 0 0 0 1 2 0 0 0 1 0 0 0 0 0 0 0 0 0 -0 -0 -0 -0 -0 -0
0 0 -0 0 0 0 0 0 0 1 2 2 1 0 0 0 0 0 0 0 0 0 0 0 1 0 0 0 0 0 0 0 0 0 0 1 1 0 0 -0 -0 0 0 -0
0 0 0 0 0 0 0 0 0 0 0 1 1 0 0 0 0 0 0 0 0 0 0 -0 -0 -0 0 0 0 0 0 0 0 0 0 0 1 0 0 0 0 0 0 0
0 0 0 0 0 0 0 0 0 0 0 1 1 0 0 0 0 0 0 0 0 0 0 0 0 0 0 0 0 0 0 0 0 1 1 1 1 1 1 1 1 1 1 0
0 0 0 0 0 1 0 0 0 0 1 0 0 0 0 0 0 0 0 0 0 0 0 0 -0 0 0 0 0 0 0 0 0 0 0 1 1 1 1 1 1 1 1 0
0 0 0 0 0 1 0 0 0 0 0 0 0 0 0 0 0 0 0 0 0 0 0 0 0 0 0 0 0 0 0 0 0 0 1 1 1 1 1 1 1 1 1 0
0 0 0 0 0 0 0 0 0 0 0 0 0 0 0 0 0 0 0 0 0 0 0 0 0 0 0 0 0 0 1 0 1 1 1 1 1 2 2 2 1 1 1 1
0 0 0 0 0 0 0 0 0 0 0 0 0 0 0 0 0 -0 -0 0 0 0 0 0 0 0 0 0 0 0 0 1 1 1 1 2 2 2 2 2 2 1 1 1
0 0 0 0 0 0 0 0 0 0 0 0 0 0 0 0 0 -0 -0 -0 0 0 0 0 0 0 0 0 0 0 0 1 1 1 1 2 2 2 2 2 2 2 2 2
0 0 0 0 0 0 0 0 0 0 0 0 0 -0 0 0 0 0 0 -0 0 0 0 0 0 0 0 0 0 0 0 0 1 1 2 2 1 0 0 0 0 1 1 2
0 0 0 0 0 0 0 0 0 0 0 0 0 0 -0 -0 0 0 0 -0 0 0 0 0 0 0 0 0 0 0 0 0 0 1 3 2 2 2 1 0 0 0 0 1
0 0 0 0 0 0 0 0 0 0 0 0 0 0 0 0 0 0 0 0 0 0 0 0 0 0 0 0 0 0 0 0 1 1 1 1 2 1 1 1 1 0 0 0
0 0 0 0 0 0 0 0 0 0 0 0 0 0 0 0 0 0 0 0 0 0 0 0 0 0 0 0 0 0 0 0 0 1 0 0 1 1 0 0 0 0 0 0
0 0 0 0 0 0 0 0 0 0 0 0 0 0 0 0 0 0 0 0 0 0 0 0 0 0 0 0 0 0 0 0 0 0 1 0 0 0 0 0 0 0 0 0
0 0 0 0 0 0 0 0 0 0 0 0 0 0 0 0 0 0 0 0 0 0 0 0 0 0 0 0 0 0 0 0 0 0 0 0 0 0 0 0 0 0 0 0
0 0 0 0 0 0 0 0 0 0 0 0 0 0 0 0 0 0 0 0 0 0 0 0 0 0 0 0 0 0 0 0 0 0 0 0 0 0 0 0 0 0 0 0
0 0 0 0 0 0 0 0 0 0 0 0 0 0 0 0 0 0 0 0 0 0 0 0 0 0 0 0 0 0 0 0 0 0 0 0 0 0 0 0 0 0 0 0
0 0 0 0 0 0 0 0 0 0 0 0 0 0 0 0 0 0 0 0 0 0 0 0 0 0 0 0 0 0 0 0 0 0 0 0 0 0 0 0 0 0 0 0
-0 -0 0 0 0 0 0 0 0 0 0 0 0 0 0 0 0 0 0 0 0 0 0 0 0 0 0 0 0 0 0 0 0 0 0 0 0 0 0 0 0 0 0 0
-0 -0 -0 0 0 0 0 0 0 0 0 0 0 0 0 0 0 0 0 0 0 0 0 0 0 0 0 0 0 0 0 0 0 0 0 0 0 0 0 0 0 0 0 0
0 -0 -0 -0 0 0 0 0 0 0 0 0 0 0 0 0 0 0 0 0 0 0 0 0 0 0 0 0 0 0 0 0 0 0 0 0 0 0 0 0 0 0 0 0
0 0 -0 -0 -0 -0 -0 -0 0 0 0 0 0 0 0 0 0 0 0 0 0 0 0 0 0 0 0 0 0 0 0 0 0 0 0 0 0 0 0 0 0 0 0 0
-0 -0 -0 -0 0 -0 -0 -0 -0 0 0 -0 -0 -0 -0 0 0 0 0 0 0 0 0 0 0 0 0 0 0 0 0 0 0 0 0 0 0 0 0 0 0 0 0 0
0 0 0 0 -0 -0 -0 -0 -0 -0 -0 -0 -0 -0 -0 -0 -0 0 0 0 0 0 0 0 0 0 0 -0 -0 -0 -0 -0 0 0 0 0 0 0 0 0 0 0 0 0
0 0 0 0 0 0 0 0 0 0 -0 -0 -0 0 0 0 0 0 0 0 0 0 0 0 0 0 0 0 -0 -0 -0 -0 -0 -0 -0 0 0 0 0 0 0 0 0 0
Wind_Speed_500mb
6 13 8 9 12 15 3 6 10 13 15 13 10 13 13 25 33 30 27 24 27 10 12 34 50 64 76 75 64 61 60 58 59 45 39 37 35 35 38 36 30 26 24 22
6 9 16 10 15 2 13 12 10 8 8 8 20 43 39 36 40 43 33 18 8 23 9 18 28 53 66 69 57 56 58 56 48 45 46 41 36 33 35 37 32 29 26 22
9 10 13 3 10 7 13 15 10 4 9 8 26 35 38 38 43 42 37 30 13 9 18 17 21 38 57 61 61 64 57 56 50 46 45 44 39 39 35 36 34 32 27 24
6 10 3 7 11 23 23 21 27 16 16 30 38 44 49 47 46 44 39 34 28 17 19 23 21 20 46 60 70 62 66 61 47 41 43 45 40 41 40 37 37 33 29 25
4 3 9 7 11 12 11 8 22 21 18 6 31 27 48 51 41 37 29 34 28 20 21 18 29 31 47 73 74 72 69 67 55 48 40 44 43 39 36 38 39 36 30 28
4 4 11 3 28 34 20 5 27 26 15 17 23 13 9 39 37 32 28 25 24 16 28 16 36 41 61 75 72 71 68 63 62 52 47 47 40 34 30 33 38 37 33 30
5 3 7 24 48 39 8 5 30 26 25 6 16 22 22 34 37 35 34 33 27 28 22 24 47 31 44 62 65 64 61 62 62 59 50 41 41 37 32 27 35 36 34 31
6 6 7 42 14 9 14 16 21 17 22 34 33 29 39 46 50 46 45 41 35 32 30 23 7 18 34 40 52 53 59 56 50 55 54 47 43 41 39 34 33 36 37 35
2 6 6 22 16 29 30 16 24 9 18 24 29 32 22 44 49 53 54 47 39 40 36 30 28 17 11 15 24 27 32 40 45 41 48 49 46 45 44 42 42 41 44 42
5 4 7 24 32 44 40 27 21 19 20 23 31 28 32 24 46 51 51 47 42 39 33 28 29 25 14 7 29 24 25 27 25 20 24 31 38 43 44 46 48 50 50 51
3 2 4 8 30 40 40 30 21 25 24 22 27 31 31 37 32 43 43 39 36 37 39 32 24 22 20 16 9 7 13 19 23 22 23 27 34 38 44 47 49 52 56 58
4 3 11 17 26 35 33 32 21 16 19 19 23 25 26 31 33 31 45 38 27 28 35 39 34 26 24 17 14 9 8 12 19 29 28 32 36 38 40 44 45 47 47 51
10 28 33 34 34 12 24 21 15 11 5 10 17 16 19 24 22 17 7 13 21 26 24 30 35 30 29 25 20 11 7 15 20 28 25 30 36 40 42 43 43 42 42 43
27 26 23 3 6 14 13 8 6 11 7 6 5 10 12 17 15 16 17 18 22 24 25 22 20 24 34 33 21 14 5 14 17 17 18 23 33 34 42 47 44 42 40 38
23 17 22 19 12 7 5 2 2 10 14 11 5 8 13 16 18 23 25 26 22 24 26 29 26 22 17 20 29 11 3 5 10 2 12 24 38 35 28 34 38 40 47 19
20 15 14 21 15 11 5 6 5 9 14 13 10 1 9 15 19 21 26 28 32 33 35 31 32 32 27 16 4 27 5 4 3 8 9 15 12 25 22 36 34 26 26 25
8 13 16 14 7 9 9 2 5 11 25 25 19 12 3 13 17 19 23 25 24 26 31 32 34 32 27 21 4 6 25 29 14 15 21 10 9 20 33 41 12 16 29 49
7 8 10 11 8 7 9 6 9 20 32 31 29 20 12 8 19 21 19 16 14 14 27 33 33 31 26 21 18 4 14 23 17 9 10 10 20 14 15 24 23 20 40 69
10 10 4 13 13 15 16 17 17 24 33 35 30 25 23 22 21 20 21 19 23 30 38 36 37 30 27 22 22 13 7 3 7 6 6 24 24 39 36 35 27 17 36 50
20 14 19 9 19 19 24 22 23 29 31 33 29 26 23 24 23 28 29 36 34 36 32 33 32 32 34 26 20 15 6 7 7 7 18 12 11 33 27 34 39 36 32 30
32 35 36 22 33 27 32 34 41 44 42 35 34 27 30 34 33 31 36 41 29 28 34 38 37 38 37 32 24 23 25 23 23 23 17 19 24 35 29 34 31 22 23 32
21 19 29 40 35 26 33 34 38 46 42 43 41 38 30 31 28 38 39 41 36 24 31 41 42 39 38 36 36 34 29 29 32 37 40 39 36 33 25 24 21 20 16 17
13 10 12 20 25 34 28 30 38 35 37 32 29 31 32 35 34 28 32 31 30 30 29 34 40 41 39 42 40 39 37 35 31 28 34 39 41 40 37 34 32 30 28 25
11 15 13 7 6 8 14 24 20 24 19 9 18 30 23 27 31 26 22 22 26 31 31 24 31 39 45 49 48 46 43 41 40 37 36 27 26 30 31 30 28 26 24 21
10 6 3 16 19 7 10 7 20 25 22 20 18 20 14 16 24 27 26 26 35 34 38 26 23 34 38 42 47 51 53 50 45 41 39 38 35 32 30 28 23 22 21 22
16 21 24 25 26 17 13 25 18 14 30 20 17 14 11 13 19 20 18 19 23 27 29 31 30 24 25 35 36 38 43 46 48 49 47 47 47 46 44 41 38 34 30 24
16 16 15 17 20 18 17 16 20 20 21 26 19 23 16 11 14 11 8 12 16 15 20 25 29 29 26 29 33 27 28 33 37 40 40 37 35 36 37 38 38 38 36 33
Wind_Direction_500mb
266 270 254 246 277 317 318 236 173 236 205 266 132 83 30 75 91 73 84 87 114 131 230 228 232 235 239 242 239 236 231 230 228 225 228 228 231 235 236 237 244 252 256 267
297 304 286 288 329 334 58 336 265 280 228 127 107 92 54 44 56 58 48 56 84 51 45 180 205 234 235 241 241 241 229 227 219 217 224 223 226 234 239 236 236 242 252 266
281 329 323 339 320 85 89 20 298 208 341 78 73 65 43 27 34 34 32 25 360 51 16 33 197 208 238 249 245 234 237 232 228 224 227 229 229 233 238 235 231 237 248 258
257 352 227 230 37 102 101 30 7 353 23 98 99 72 53 39 30 17 11 20 5 310 325 328 316 237 232 248 246 241 241 235 225 225 228 230 228 233 234 233 227 231 243 249
155 213 282 2 36 341 12 345 9 344 334 333 154 82 41 22 31 26 10 11 352 330 328 297 312 290 239 240 241 239 243 236 234 227 220 231 226 226 231 229 224 226 236 241
124 163 209 284 309 311 299 283 352 345 308 4 125 73 15 14 24 34 32 32 36 322 332 307 309 272 232 229 233 236 239 238 238 232 231 234 226 222 229 228 223 224 232 237
175 187 293 332 317 320 110 296 330 358 39 103 90 96 68 44 38 34 30 25 37 37 57 228 280 270 210 214 222 230 242 242 241 239 232 228 230 229 228 228 224 225 230 234
115 143 249 350 359 33 327 317 333 19 70 91 94 79 56 46 35 33 33 23 17 14 23 29 36 104 150 193 214 224 232 236 237 237 235 232 232 230 230 227 226 225 229 231
216 100 56 36 21 19 44 31 4 23 93 99 81 74 65 43 36 26 28 27 21 5 6 10 13 22 101 194 186 209 223 222 227 234 237 241 238 234 232 234 231 228 229 231
232 15 3 32 34 31 21 30 39 88 100 92 82 63 59 54 33 27 22 18 18 15 2 15 18 13 6 321 218 203 202 221 215 214 235 241 238 237 238 238 238 234 232 235
254 2 11 354 21 0 12 25 44 64 82 84 74 60 47 50 49 11 14 14 13 20 19 13 10 9 358 341 327 192 202 203 224 213 223 241 239 241 241 243 244 244 240 239
248 27 276 285 337 347 3 8 34 33 74 75 69 64 47 32 36 10 352 2 354 22 30 29 16 6 0 351 330 304 214 211 223 231 226 239 241 240 242 246 248 249 250 252
262 296 293 291 307 339 352 356 34 59 40 80 76 60 63 76 63 58 355 354 2 21 29 32 26 19 22 4 350 332 286 238 232 234 228 246 248 248 249 247 247 249 249 256
291 287 296 86 337 348 344 343 54 103 130 158 13 19 24 17 35 55 41 21 22 31 33 38 36 35 32 26 19 10 342 255 243 238 235 267 256 248 253 253 254 250 238 244
259 233 251 283 263 314 6 93 150 177 122 140 159 308 342 356 360 12 17 24 24 28 29 24 28 22 12 25 38 20 359 309 286 246 27 314 271 241 239 271 255 243 216 234
226 255 242 210 223 256 328 118 143 150 179 152 182 107 2 351 352 355 3 11 15 26 33 30 24 20 14 8 50 35 12 98 97 73 101 208 236 220 259 249 237 186 181 343
229 197 187 182 187 248 271 142 167 141 149 149 143 134 80 14 19 21 20 19 16 18 25 26 23 18 11 12 32 188 68 68 88 87 122 150 168 146 169 194 158 206 213 207
155 169 194 218 243 257 273 258 187 166 161 153 154 148 136 68 54 43 43 43 60 50 34 28 20 17 12 10 20 347 243 258 288 341 71 156 189 186 197 215 195 195 182 187
83 75 250 258 249 244 232 218 163 151 151 147 143 126 104 88 73 67 64 71 66 53 44 32 28 22 27 34 26 17 0 2 246 271 167 185 146 137 127 109 106 133 202 205
98 84 57 177 203 206 214 210 177 152 139 133 129 121 112 89 85 84 68 66 60 53 46 35 33 34 38 37 50 60 65 90 108 177 201 219 170 142 116 119 122 111 122 120
90 79 64 78 86 120 149 163 150 131 120 118 112 114 101 98 91 90 74 68 72 67 60 52 47 42 45 43 53 65 73 79 107 109 109 101 103 144 136 129 130 120 106 118
97 102 91 69 72 82 95 111 136 129 123 113 111 101 97 93 88 76 72 62 61 68 67 58 53 48 48 51 54 59 65 74 75 80 97 106 109 122 139 130 131 122 119 113
202 118 102 111 75 76 86 92 98 108 97 104 118 100 91 85 83 84 71 59 55 70 76 69 64 58 56 58 57 56 58 60 61 67 71 75 83 91 97 97 96 98 103 100
198 218 221 162 165 127 117 106 120 103 101 137 107 94 81 83 73 70 71 61 59 65 91 91 70 69 64 62 62 60 57 56 59 61 63 63 66 63 66 73 76 78 78 77
102 106 171 165 175 120 161 177 167 136 139 137 137 136 138 62 60 64 60 62 62 69 81 93 84 78 75 65 60 59 63 63 62 62 60 58 57 56 60 64 68 71 72 70
128 121 115 114 100 117 164 155 125 172 200 164 123 111 120 124 106 91 65 47 47 59 69 74 73 74 72 71 64 58 59 61 60 58 58 59 59 59 58 58 59 60 63 66
139 126 142 122 106 96 88 123 141 137 165 191 166 140 134 123 115 98 66 29 39 68 60 59 63 71 79 74 74 71 54 47 43 43 46 50 51 51 51 52 54 56 57 56
Wind_Speed_850mb
6 13 8 9 12 15 3 6 10 13 15 13 10 13 13 25 33 30 27 24 27 10 12 34 50 64 76 75 64 61 60 58 59 45 39 37 35 35 38 36 30 26 24 22
6 9 16 10 15 2 13 12 10 8 8 8 20 43 39 36 40 43 33 18 8 23 9 18 28 53 66 69 57 56 58 56 48 45 46 41 36 33 35 37 32 29 26 22
9 10 13 3 10 7 13 15 10 4 9 8 26 35 38 38 43 42 37 30 13 9 18 17 21 38 57 61 61 64 57 56 50 46 45 44 39 39 35 36 34 32 27 24
6 10 3 7 11 23 23 21 27 16 16 30 38 44 49 47 46 44 39 34 28 17 19 23 21 20 46 60 70 62 66 61 47 41 43 45 40 41 40 37 37 33 29 25
4 3 9 7 11 12 11 8 22 21 18 6 31 27 48 51 41 37 29 34 28 20 21 18 29 31 47 73 74 72 69 67 55 48 40 44 43 39 36 38 39 36 30 28
4 4 11 3 28 34 20 5 27 26 15 17 23 13 9 39 37 32 28 25 24 16 28 16 36 41 61 75 72 71 68 63 62 52 47 47 40 34 30 33 38 37 33 30
5 3 7 24 48 39 8 5 30 26 25 6 16 22 22 34 37 35 34 33 27 28 22 24 47 31 44 62 65 64 61 62 62 59 50 41 41 37 32 27 35 36 34 31
6 6 7 42 14 9 14 16 21 17 22 34 33 29 39 46 50 46 45 41 35 32 30 23 7 18 34 40 52 53 59 56 50 55 54 47 43 41 39 34 33 36 37 35
2 6 6 22 16 29 30 16 24 9 18 24 29 32 22 44 49 53 54 47 39 40 36 30 28 17 11 15 24 27 32 40 45 41 48 49 46 45 44 42 42 41 44 42
5 4 7 24 32 44 40 27 21 19 20 23 31 28 32 24 46 51 51 47 42 39 33 28 29 25 14 7 29 24 25 27 25 20 24 31 38 43 44 46 48 50 50 51
3 2 4 8 30 40 40 30 21 25 24 22 27 31 31 37 32 43 43 39 36 37 39 32 24 22 20 16 9 7 13 19 23 22 23 27 34 38 44 47 49 52 56 58
4 3 11 17 26 35 33 32 21 16 19 19 23 25 26 31 33 31 45 38 27 28 35 39 34 26 24 17 14 9 8 12 19 29 28 32 36 38 40 44 45 47 47 51
10 28 33 34 34 12 24 21 15 11 5 10 17 16 19 24 22 17 7 13 21 26 24 30 35 30 29 25 20 11 7 15 20 28 25 30 36 40 42 43 43 42 42 43
27 26 23 3 6 14 13 8 6 11 7 6 5 10 12 17 15 16 17 18 22 24 25 22 20 24 34 33 21 14 5 14 17 17 18 23 33 34 42 47 44 42 40 38
23 17 22 19 12 7 5 2 2 10 14 11 5 8 13 16 18 23 25 26 22 24 26 29 26 22 17 20 29 11 3 5 10 2 12 24 38 35 28 34 38 40 47 19
20 15 14 21 15 11 5 6 5 9 14 13 10 1 9 15 19 21 26 28 32 33 35 31 32 32 27 16 4 27 5 4 3 8 9 15 12 25 22 36 34 26 26 25
8 13 16 14 7 9 9 2 5 11 25 25 19 12 3 13 17 19 23 25 24 26 31 32 34 32 27 21 4 6 25 29 14 15 21 10 9 20 33 41 12 16 29 49
7 8 10 11 8 7 9 6 9 20 32 31 29 20 12 8 19 21 19 16 14 14 27 33 33 31 26 21 18 4 14 23 17 9 10 10 20 14 15 24 23 20 40 69
10 10 4 13 13 15 16 17 17 24 33 35 30 25 23 22 21 20 21 19 23 30 38 36 37 30 27 22 22 13 7 3 7 6 6 24 24 39 36 35 27 17 36 50
20 14 19 9 19 19 24 22 23 29 31 33 29 26 23 24 23 28 29 36 34 36 32 33 32 32 34 26 20 15 6 7 7 7 18 12 11 33 27 34 39 36 32 30
32 35 36 22 33 27 32 34 41 44 42 35 34 27 30 34 33 31 36 41 29 28 34 38 37 38 37 32 24 23 25 23 23 23 17 19 24 35 29 34 31 22 23 32
21 19 29 40 35 26 33 34 38 46 42 43 41 38 30 31 28 38 39 41 36 24 31 41 42 39 38 36 36 34 29 29 32 37 40 39 36 33 25 24 21 20 16 17
13 10 12 20 25 34 28 30 38 35 37 32 29 31 32 35 34 28 32 31 30 30 29 34 40 41 39 42 40 39 37 35 31 28 34 39 41 40 37 34 32 30 28 25
11 15 13 7 6 8 14 24 20 24 19 9 18 30 23 27 31 26 22 22 26 31 31 24 31 39 45 49 48 46 43 41 40 37 36 27 26 30 31 30 28 26 24 21
10 6 3 16 19 7 10 7 20 25 22 20 18 20 14 16 24 27 26 26 35 34 38 26 23 34 38 42 47 51 53 50 45 41 39 38 35 32 30 28 23 22 21 22
16 21 24 25 26 17 13 25 18 14 30 20 17 14 11 13 19 20 18 19 23 27 29 31 30 24 25 35 36 38 43 46 48 49 47 47 47 46 44 41 38 34 30 24
16 16 15 17 20 18 17 16 20 20 21 26 19 23 16 11 14 11 8 12 16 15 20 25 29 29 26 29 33 27 28 33 37 40 40 37 35 36 37 38 38 38 36 33
Wind_Direction_850mb
266 270 254 246 277 317 318 236 173 236 205 266 132 83 30 75 91 73 84 87 114 131 230 228 232 235 239 242 239 236 231 230 228 225 228 228 231 235 236 237 244 252 256 267
297 304 286 288 329 334 58 336 265 280 228 127 107 92 54 44 56 58 48 56 84 51 45 180 205 234 235 241 241 241 229 227 219 217 224 223 226 234 239 236 236 242 252 266
281 329 323 339 320 85 89 20 298 208 341 78 73 65 43 27 34 34 32 25 360 51 16 33 197 208 238 249 245 234 237 232 228 224 227 229 229 233 238 235 231 237 248 258
257 352 227 230 37 102 101 30 7 353 23 98 99 72 53 39 30 17 11 20 5 310 325 328 316 237 232 248 246 241 241 235 225 225 228 230 228 233 234 233 227 231 243 249
155 213 282 2 36 341 12 345 9 344 334 333 154 82 41 22 31 26 10 11 352 330 328 297 312 290 239 240 241 239 243 236 234 227 220 231 226 226 231 229 224 226 236 241
124 163 209 284 309 311 299 283 352 345 308 4 125 73 15 14 24 34 32 32 36 322 332 307 309 272 232 229 233 236 239 238 238 232 231 234 226 222 229 228 223 224 232 237
175 187 293 332 317 320 110 296 330 358 39 103 90 96 68 44 38 34 30 25 37 37 57 228 280 270 210 214 222 230 242 242 241 239 232 228 230 229 228 228 224 225 230 234
115 143 249 350 359 33 327 317 333 19 70 91 94 79 56 46 35 33 33 23 17 14 23 29 36 104 150 193 214 224 232 236 237 237 235 232 232 230 230 227 226 225 229 231
216 100 56 36 21 19 44 31 4 23 93 99 81 74 65 43 36 26 28 27 21 5 6 10 13 22 101 194 186 209 223 222 227 234 237 241 238 234 232 234 231 228 229 231
232 15 3 32 34 31 21 30 39 88 100 92 82 63 59 54 33 27 22 18 18 15 2 15 18 13 6 321 218 203 202 221 215 214 235 241 238 237 238 238 238 234 232 235
254 2 11 354 21 0 12 25 44 64 82 84 74 60 47 50 49 11 14 14 13 20 19 13 10 9 358 341 327 192 202 203 224 213 223 241 239 241 241 243 244 244 240 239
248 27 276 285 337 347 3 8 34 33 74 75 69 64 47 32 36 10 352 2 354 22 30 29 16 6 0 351 330 304 214 211 223 231 226 239 241 240 242 246 248 249 250 252
262 296 293 291 307 339 352 356 34 59 40 80 76 60 63 76 63 58 355 354 2 21 29 32 26 19 22 4 350 332 286 238 232 234 228 246 248 248 249 247 247 249 249 256
291 287 296 86 337 348 344 343 54 103 130 158 13 19 24 17 35 55 41 21 22 31 33 38 36 35 32 26 19 10 342 255 243 238 235 267 256 248 253 253 254 250 238 244
259 233 251 283 263 314 6 93 150 177 122 140 159 308 342 356 360 12 17 24 24 28 29 24 28 22 12 25 38 20 359 309 286 246 27 314 271 241 239 271 255 243 216 234
226 255 242 210 223 256 328 118 143 150 179 152 182 107 2 351 352 355 3 11 15 26 33 30 24 20 14 8 50 35 12 98 97 73 101 208 236 220 259 249 237 186 181 343
229 197 187 182 187 248 271 142 167 141 149 149 143 134 80 14 19 21 20 19 16 18 25 26 23 18 11 12 32 188 68 68 88 87 122 150 168 146 169 194 158 206 213 207
155 169 194 218 243 257 273 258 187 166 161 153 154 148 136 68 54 43 43 43 60 50 34 28 20 17 12 10 20 347 243 258 288 341 71 156 189 186 197 215 195 195 182 187
83 75 250 258 249 244 232 218 163 151 151 147 143 126 104 88 73 67 64 71 66 53 44 32 28 22 27 34 26 17 0 2 246 271 167 185 146 137 127 109 106 133 202 205
98 84 57 177 203 206 214 210 177 152 139 133 129 121 112 89 85 84 68 66 60 53 46 35 33 34 38 37 50 60 65 90 108 177 201 219 170 142 116 119 122 111 122 120
90 79 64 78 86 120 149 163 150 131 120 118 112 114 101 98 91 90 74 68 72 67 60 52 47 42 45 43 53 65 73 79 107 109 109 101 103 144 136 129 130 120 106 118
97 102 91 69 72 82 95 111 136 129 123 113 111 101 97 93 88 76 72 62 61 68 67 58 53 48 48 51 54 59 65 74 75 80 97 106 109 122 139 130 131 122 119 113
202 118 102 111 75 76 86 92 98 108 97 104 118 100 91 85 83 84 71 59 55 70 76 69 64 58 56 58 57 56 58 60 61 67 71 75 83 91 97 97 96 98 103 100
198 218 221 162 165 127 117 106 120 103 101 137 107 94 81 83 73 70 71 61 59 65 91 91 70 69 64 62 62 60 57 56 59 61 63 63 66 63 66 73 76 78 78 77
102 106 171 165 175 120 161 177 167 136 139 137 137 136 138 62 60 64 60 62 62 69 81 93 84 78 75 65 60 59 63 63 62 62 60 58 57 56 60 64 68 71 72 70
128 121 115 114 100 117 164 155 125 172 200 164 123 111 120 124 106 91 65 47 47 59 69 74 73 74 72 71 64 58 59 61 60 58 58 59 59 59 58 58 59 60 63 66
139 126 142 122 106 96 88 123 141 137 165 191 166 140 134 123 115 98 66 29 39 68 60 59 63 71 79 74 74 71 54 47 43 43 46 50 51 51 51 52 54 56 57 56